Location: Albuquerque Trailhead
(34.7934°N, 106.3736°W)
Time: 07:39:07
(UTC+00:00)

FO-99 - Visible Passes

Search period start: 01 April 2023 00:00
Search period end: 11 April 2023 00:00
Orbit: 422 x 443 km, 97.1° (Epoch: 31 March)

Date Brightness Start Highest point End Pass type
(mag) Time Alt. Az. Time Alt. Az. Time Alt. Az.
01 Apr ? 02:16:42 10° S 02:19:59 56° W 02:23:17 10° NNW visible
03 Apr ? 02:28:17 10° SSW 02:31:23 36° W 02:34:30 10° NNW visible
04 Apr ? 01:47:33 10° SSE 01:50:45 47° ENE 01:53:58 10° N visible
05 Apr ? 02:39:33 10° SSW 02:42:20 25° W 02:45:08 10° NW visible
06 Apr ? 01:58:07 10° SSE 02:01:25 72° ENE 02:04:43 10° N visible
07 Apr ? 02:50:31 10° SW 02:52:50 18° W 02:55:09 10° NW visible
08 Apr ? 02:08:20 10° S 02:11:38 77° W 02:14:56 10° NNW visible
09 Apr ? 03:01:19 10° WSW 03:02:52 13° W 03:04:25 10° WNW visible
10 Apr ? 02:18:10 10° S 02:21:22 51° W 02:24:36 10° NNW visible
